Little Rock AFB, AR

11:50 AM CDT on April 29, 2017 (GMT -0500)
Little Rock Air Force Base

Weather History for KLRF - March, 2012

Change the Weather History Date:

Tuesday, March 20, 2012

  Actual Average Record
Temperature  
Mean Temperature 67 °F -  
Max Temperature 78 °F 67 °F 85 °F (2017)
Min Temperature 59 °F 44 °F 28 °F (1971)
Cooling Degree Days 2    
Growing Degree Days 17 (Base 50)    
Moisture  
Dew Point 61 °F    
Average Humidity 90    
Maximum Humidity 100    
Minimum Humidity 65    
Precipitation  
Precipitation 1.32 in - - ()
Sea Level Pressure  
Sea Level Pressure 29.84 in    
Wind  
Wind Speed 8 mph (SE)    
Max Wind Speed 18 mph    
Max Gust Speed 38 mph    
Visibility 7 miles    
Events Rain , Thunderstorm    
Averages and records for this station are not official NWS values.
T = Trace of Precipitation, MM = Missing Value Source: NWS Daily Summary

Daily Weather History Graph

Daily Weather History Graph

Search for Another Location

Airport or City:

Trip Planner

Search our weather history database for the weather conditions in past years. The results will help you decide how hot, cold, wet, or windy it might be!

Date:

Astronomy

Mar. 20, 2012 Rise Set
Actual Time 7:11 AM CDT 7:20 PM CDT
Civil Twilight 6:46 AM CDT 7:45 PM CDT
Nautical Twilight 6:16 AM CDT 8:15 PM CDT
Astronomical Twilight 5:47 AM CDT 8:45 PM CDT
Moon 5:50 AM CDT (3/20) 5:51 PM CDT (3/20)
Length of Visible Light 12h 59m
Length of Day
12h 09m
Waning Crescent, 4% of the Moon is Illuminated
Mar 20
Waning Crescent
Mar 22
New
Mar 30
First Quarter
Apr 6
Full
Apr 13
Last Quarter

Hourly Weather History & Observations

Time (CDT) Temp. Dew Point Humidity Pressure Visibility Wind Dir Wind Speed Gust Speed Precip Events Conditions
12:55 AM 69.3 °F 58.5 °F 68% 29.88 in 10.0 mi ESE 9.2 mph - N/A   Scattered Clouds
1:55 AM 69.3 °F 59.7 °F 72% 29.86 in 10.0 mi SE 9.2 mph - N/A   Overcast
2:55 AM 68.0 °F 60.3 °F 76% 29.85 in 10.0 mi SE 9.2 mph - N/A   Clear
3:55 AM 67.8 °F 61.2 °F 79% 29.84 in 10.0 mi SSE 10.4 mph - N/A   Scattered Clouds
4:40 AM 68.0 °F 62.6 °F 83% 29.83 in 10.0 mi SE 9.2 mph - N/A   Mostly Cloudy
4:55 AM 67.8 °F 61.9 °F 81% 29.83 in 9.0 mi SE 11.5 mph - N/A   Mostly Cloudy
5:01 AM 68.0 °F 62.6 °F 83% 29.83 in 10.0 mi SSE 10.4 mph 17.3 mph N/A   Mostly Cloudy
5:55 AM 66.9 °F 61.7 °F 83% 29.82 in 10.0 mi SE 5.8 mph 16.1 mph N/A   Scattered Clouds
6:25 AM 66.2 °F 60.8 °F 83% 29.83 in 10.0 mi SE 4.6 mph - N/A   Mostly Cloudy
6:55 AM 66.9 °F 61.5 °F 83% 29.83 in 10.0 mi SE 8.1 mph - N/A   Overcast
7:55 AM 66.7 °F 61.5 °F 83% 29.85 in 9.0 mi SE 8.1 mph 23.0 mph N/A   Mostly Cloudy
8:55 AM 67.1 °F 61.9 °F 83% 29.87 in 9.0 mi Variable 6.9 mph - N/A   Overcast
9:05 AM 68.0 °F 62.6 °F 83% 29.87 in 7.0 mi ESE 8.1 mph - N/A   Light Drizzle
9:11 AM 66.2 °F 62.6 °F 88% 29.87 in 4.0 mi SE 9.2 mph - N/A Rain Light Rain
9:35 AM 66.2 °F 62.6 °F 88% 29.87 in 10.0 mi SE 11.5 mph 19.6 mph N/A   Mostly Cloudy
9:55 AM 67.1 °F 63.1 °F 87% 29.88 in 10.0 mi SSE 12.7 mph - 0.02 in   Overcast
10:10 AM 68.0 °F 64.4 °F 88% 29.88 in 10.0 mi SE 5.8 mph 20.7 mph N/A   Scattered Clouds
10:49 AM 71.6 °F 62.6 °F 73% 29.86 in 10.0 mi SE 12.7 mph 24.2 mph N/A   Mostly Cloudy
10:55 AM 71.2 °F 63.5 °F 76% 29.86 in 10.0 mi SE 11.5 mph 23.0 mph N/A   Mostly Cloudy
11:36 AM 71.6 °F 62.6 °F 73% 29.86 in 10.0 mi SE 17.3 mph 28.8 mph N/A   Mostly Cloudy
11:55 AM 73.6 °F 63.0 °F 69% 29.85 in 10.0 mi SE 18.4 mph 26.5 mph N/A   Scattered Clouds
12:55 PM 75.7 °F 63.1 °F 65% 29.84 in 10.0 mi SE 15.0 mph 23.0 mph N/A   Scattered Clouds
1:55 PM 74.8 °F 62.4 °F 65% 29.81 in 10.0 mi SE 15.0 mph 28.8 mph N/A   Mostly Cloudy
2:55 PM 75.6 °F 63.7 °F 66% 29.78 in 10.0 mi ESE 16.1 mph 23.0 mph N/A   Scattered Clouds
3:30 PM 75.2 °F 64.4 °F 69% 29.77 in 10.0 mi ESE 10.4 mph - N/A Rain Light Rain
3:38 PM 75.2 °F 64.4 °F 69% 29.77 in 10.0 mi ESE 9.2 mph 21.9 mph N/A   Partly Cloudy
3:39 PM 75.2 °F 64.4 °F 69% 29.77 in 10.0 mi ESE 8.1 mph 21.9 mph N/A Rain Light Rain
3:55 PM 74.5 °F 64.2 °F 70% 29.76 in 10.0 mi ESE 15.0 mph 21.9 mph 0.00 in   Scattered Clouds
4:49 PM 71.6 °F 62.6 °F 73% 29.78 in 10.0 mi SSE 9.2 mph 26.5 mph N/A Rain , Thunderstorm Light Rain
4:50 PM 71.6 °F 62.6 °F 73% 29.78 in 10.0 mi SSE 5.8 mph 26.5 mph N/A Rain , Thunderstorm Light Thunderstorms and Rain
4:55 PM 72.1 °F 62.1 °F 70% 29.78 in 10.0 mi South 6.9 mph 16.1 mph 0.00 in Rain , Thunderstorm Light Thunderstorms and Rain
4:56 PM 71.6 °F 62.6 °F 73% 29.84 in 1.5 mi South 18.4 mph 38.0 mph N/A Rain , Thunderstorm Light Thunderstorms and Rain
4:59 PM 69.8 °F 64.4 °F 83% 29.80 in 1.0 mi South 11.5 mph 38.0 mph N/A Rain , Thunderstorm Thunderstorms and Rain
5:18 PM 66.2 °F 64.4 °F 94% 29.81 in 2.5 mi SW 10.4 mph - N/A Rain , Thunderstorm Heavy Thunderstorms and Rain
5:21 PM 66.2 °F 64.4 °F 94% 29.81 in 1.8 mi SSW 10.4 mph - N/A Rain , Thunderstorm Heavy Thunderstorms and Rain
5:24 PM 66.2 °F 64.4 °F 94% 29.81 in 1.8 mi SW 9.2 mph - N/A Rain , Thunderstorm Light Thunderstorms and Rain
5:27 PM 66.2 °F 64.4 °F 94% 29.81 in 2.5 mi WSW 10.4 mph - N/A Rain , Thunderstorm Light Thunderstorms and Rain
5:29 PM 66.2 °F 64.4 °F 94% 29.81 in 3.0 mi SW 10.4 mph - N/A Rain , Thunderstorm Light Thunderstorms and Rain
5:33 PM 66.2 °F 64.4 °F 94% 29.81 in 7.0 mi West 5.8 mph - N/A Rain , Thunderstorm Light Thunderstorms and Rain
5:35 PM 64.4 °F 64.4 °F 100% 29.81 in 9.0 mi West 9.2 mph - N/A Rain , Thunderstorm Light Rain
5:40 PM 64.4 °F 62.6 °F 94% 29.81 in 10.0 mi West 10.4 mph - N/A Thunderstorm Light Drizzle
5:44 PM 64.4 °F 62.6 °F 94% 29.81 in 10.0 mi West 13.8 mph - N/A   Light Drizzle
5:46 PM 62.6 °F 60.8 °F 94% 29.81 in 10.0 mi West 11.5 mph - N/A   Overcast
5:48 PM 62.6 °F 60.8 °F 94% 29.81 in 10.0 mi West 9.2 mph - N/A   Overcast
5:55 PM 62.6 °F 60.6 °F 93% 29.82 in 10.0 mi Variable 3.5 mph - 0.34 in   Mostly Cloudy
5:58 PM 62.6 °F 60.8 °F 94% 29.81 in 10.0 mi WNW 6.9 mph - N/A   Mostly Cloudy
6:00 PM 62.6 °F 60.8 °F 94% 29.80 in 10.0 mi WNW 8.1 mph - N/A   Mostly Cloudy
6:02 PM 62.6 °F 60.8 °F 94% 29.81 in 10.0 mi WNW 8.1 mph - N/A Rain Light Rain
6:12 PM 60.8 °F 59.0 °F 94% 29.81 in 10.0 mi WNW 11.5 mph - N/A Rain , Thunderstorm Light Rain
6:15 PM 60.8 °F 59.0 °F 94% 29.81 in 10.0 mi West 9.2 mph - N/A Rain , Thunderstorm Light Rain
6:21 PM 60.8 °F 59.0 °F 94% 29.84 in 2.5 mi WSW 13.8 mph 20.7 mph N/A Rain , Thunderstorm Light Rain
6:22 PM 60.8 °F 59.0 °F 94% 29.83 in 1.2 mi West 12.7 mph 20.7 mph N/A Rain , Thunderstorm Light Thunderstorms and Rain
6:24 PM 60.8 °F 59.0 °F 94% 29.83 in 0.8 mi West 12.7 mph 20.7 mph N/A Rain , Thunderstorm Heavy Thunderstorms and Rain
6:28 PM 60.8 °F 59.0 °F 94% 29.83 in 0.8 mi WNW 9.2 mph 20.7 mph N/A Rain , Thunderstorm Thunderstorms and Rain
6:34 PM 60.8 °F 59.0 °F 94% 29.83 in 3.0 mi WNW 9.2 mph - N/A Rain , Thunderstorm Light Thunderstorms and Rain
6:37 PM 60.8 °F 59.0 °F 94% 29.83 in 6.0 mi West 8.1 mph - N/A Rain , Thunderstorm Light Rain
6:39 PM 60.8 °F 59.0 °F 94% 29.83 in 8.0 mi WNW 8.1 mph - N/A Rain , Thunderstorm Light Rain
6:55 PM 59.9 °F 58.8 °F 96% 29.84 in 8.0 mi NNW 4.6 mph - 0.19 in Rain Light Rain
6:56 PM 60.8 °F 59.0 °F 94% 29.84 in 7.0 mi NNW 3.5 mph - N/A Rain Light Rain
7:19 PM 60.8 °F 59.0 °F 94% 29.84 in 10.0 mi NNW 4.6 mph - N/A Rain Light Rain
7:24 PM 60.8 °F 59.0 °F 94% 29.84 in 10.0 mi Variable 3.5 mph - N/A   Overcast
7:41 PM 60.8 °F 59.0 °F 94% 29.83 in 10.0 mi Calm Calm - N/A Rain Light Rain
7:55 PM 60.1 °F 59.0 °F 96% 29.84 in 10.0 mi ENE 4.6 mph - 0.02 in Rain Light Rain
8:07 PM 60.8 °F 59.0 °F 94% 29.85 in 3.0 mi ENE 5.8 mph - N/A Rain Heavy Rain
8:08 PM 60.8 °F 59.0 °F 94% 29.85 in 2.5 mi ENE 6.9 mph - N/A Rain , Thunderstorm Heavy Rain
8:09 PM 60.8 °F 59.0 °F 94% 29.85 in 2.5 mi ENE 6.9 mph - N/A Rain , Thunderstorm Rain
8:11 PM 60.8 °F 59.0 °F 94% 29.85 in 2.0 mi ENE 5.8 mph - N/A Rain , Thunderstorm Rain
8:12 PM 60.8 °F 59.0 °F 94% 29.84 in 2.0 mi ENE 4.6 mph - N/A Rain , Thunderstorm Thunderstorms and Rain
8:15 PM 60.8 °F 59.0 °F 94% 29.84 in 2.5 mi NE 5.8 mph - N/A Rain , Thunderstorm Heavy Thunderstorms and Rain
8:22 PM 60.8 °F 59.0 °F 94% 29.83 in 3.0 mi NE 4.6 mph - N/A Rain , Thunderstorm Light Thunderstorms and Rain
8:34 PM 60.8 °F 60.8 °F 100% 29.84 in 9.0 mi ENE 4.6 mph - N/A Rain , Thunderstorm Light Thunderstorms and Rain
8:39 PM 60.8 °F 60.8 °F 100% 29.83 in 4.0 mi Calm Calm - N/A Rain , Thunderstorm Light Rain
8:43 PM 60.8 °F 60.8 °F 100% 29.85 in 4.0 mi WSW 8.1 mph - N/A Rain , Thunderstorm Light Rain
8:55 PM 60.3 °F 60.1 °F 99% 29.86 in 6.0 mi WSW 5.8 mph - 0.33 in Rain , Thunderstorm Light Rain
9:00 PM 60.8 °F 60.8 °F 100% 29.85 in 6.0 mi Calm Calm - N/A Rain , Thunderstorm Rain
9:07 PM 60.8 °F 60.8 °F 100% 29.86 in 6.0 mi WSW 6.9 mph - N/A Rain , Thunderstorm Light Thunderstorms and Rain
9:20 PM 60.8 °F 60.8 °F 100% 29.86 in 2.5 mi Calm Calm - N/A Rain , Thunderstorm Heavy Thunderstorms and Rain
9:22 PM 60.8 °F 60.8 °F 100% 29.86 in 2.0 mi Calm Calm - N/A Rain , Thunderstorm Heavy Thunderstorms and Rain
9:28 PM 60.8 °F 60.8 °F 100% 29.86 in 2.0 mi ENE 3.5 mph - N/A Rain Rain
9:31 PM 60.8 °F 60.8 °F 100% 29.86 in 2.5 mi NNE 4.6 mph - N/A Rain Heavy Rain
9:34 PM 60.8 °F 60.8 °F 100% 29.86 in 2.0 mi Variable 3.5 mph - N/A Rain Rain
9:37 PM 60.8 °F 60.8 °F 100% 29.86 in 2.5 mi NW 4.6 mph - N/A Rain Light Rain
9:39 PM 60.8 °F 60.8 °F 100% 29.86 in 3.0 mi Calm Calm - N/A Rain Light Rain
9:40 PM 60.8 °F 60.8 °F 100% 29.87 in 3.0 mi Calm Calm - N/A Rain Light Rain
9:41 PM 60.8 °F 60.8 °F 100% 29.87 in 3.0 mi Calm Calm - N/A Rain Light Rain
9:44 PM 60.8 °F 60.8 °F 100% 29.87 in 3.0 mi Calm Calm - N/A Rain Light Rain
9:49 PM 60.8 °F 60.8 °F 100% 29.86 in 1.8 mi Calm Calm - N/A Rain Rain
9:50 PM 60.8 °F 60.8 °F 100% 29.86 in 1.5 mi North 3.5 mph - N/A Rain Heavy Rain
9:55 PM 61.0 °F 60.6 °F 99% 29.86 in 1.5 mi NE 3.5 mph - 0.36 in Rain Heavy Rain
9:56 PM 60.8 °F 60.8 °F 100% 29.86 in 1.8 mi Calm Calm - N/A Rain Light Rain
9:57 PM 60.8 °F 60.8 °F 100% 29.87 in 2.0 mi Calm Calm - N/A Rain Light Rain
9:59 PM 60.8 °F 60.8 °F 100% 29.87 in 3.0 mi Calm Calm - N/A Rain Light Rain
10:19 PM 60.8 °F 60.8 °F 100% 29.86 in 8.0 mi NNE 3.5 mph - N/A Rain Light Rain
10:40 PM 60.8 °F 60.8 °F 100% 29.86 in 10.0 mi NE 4.6 mph - N/A   Mostly Cloudy
10:42 PM 60.8 °F 60.8 °F 100% 29.86 in 10.0 mi ENE 4.6 mph - N/A Rain Light Rain
10:55 PM 61.3 °F 61.0 °F 99% 29.86 in 10.0 mi NE 4.6 mph - 0.02 in   Mostly Cloudy
10:56 PM 60.8 °F 60.8 °F 100% 29.85 in 10.0 mi ENE 5.8 mph - N/A Rain Light Rain
11:14 PM 60.8 °F 60.8 °F 100% 29.85 in 10.0 mi ENE 5.8 mph - N/A   Mostly Cloudy
11:23 PM 60.8 °F 60.8 °F 100% 29.85 in 10.0 mi ENE 6.9 mph - N/A Rain Light Rain
11:55 PM 61.9 °F 61.5 °F 99% 29.86 in 9.0 mi Calm Calm - 0.04 in Rain Light Rain